Weather in Yeosu

South Korea     34°45′41″N   127°39′46″E
temp.,
°C
wind,
m/s
gust,
m/s
humid.,
%
clouds,
%
prec.,
mm/h
press.,
hPa
HPBL,
m
1 august, sun
sun100:00+26w23873 0.0 100176
03:00+25wnw228897 0.8 100066
06:00+25wnw238666 0.2 100191
09:00+28wnw1275100 0.2 1001248
12:00+30ssw4465100 0.0 1000642
15:00+30ssw677040 0.0 1000573
18:00+28wsw4680100 0.8 1001228
21:00+26wnw2585100 1.2 1002135
2 august, mon
mon200:00+26nw228464 0.0 100261
03:00+25n2286100 0.0 100281
06:00+25nne3489100 0.0 1002157
09:00+26ne2385100 1.3 1003156
12:00+29se2270100 0.6 1003540
15:00+29s336869 0.6 1003616
18:00+28sse3476100 0.0 1003381
21:00+27s2286100 0.9 100554
3 august, tue
tue300:00+27sse1187100 0.1 100528
03:00+26e1188100 0.1 100546
06:00+26ene2288100 0.0 1006121
09:00+27ene2281100 0.0 1007334
12:00+29sse1170100 0.0 1007569
15:00+30ssw3269100 0.0 1007688
18:00+28sw3479100 0.0 1006179
21:00+27sw228695 0.0 100872
4 august, wed
wed400:00+26wnw1186100 0.3 100832
03:00+26nnw1185100 0.3 100758
06:00+26nnw1185100 0.0 100871
09:00+28nne117573 0.0 1008315
12:00+29sse2172100 0.1 1008557
15:00+30ssw3269100 0.1 1006611
18:00+29ssw337520 0.0 1006315
21:00+26wsw22868 0.0 100645
5 august, thu
thu500:00+26w118657 0.0 100666
03:00+26wnw118578 0.0 100563
06:00+25nw228626 0.0 100585
09:00+28nw017634 0.0 1005331
12:00+30sw23655 0.0 1004707
15:00+30ssw53667 0.0 1002516
18:00+29ssw45740 0.0 1002230
21:00+27ese00843 0.0 100212